N513LW KPBI-KEYW

Flight info

Callsign N513LW
Flight time 1h 1m
Altitude 18000
Route WELLY3 WELLY STRAP
Aircraft B58T/L-SDFGRY/C

Departure

Time 2026-04-23 20:46
Airport Palm Beach International Airport (KPBI)

Arrival

Time 2026-04-23 21:47
Airport Key West International Airport (KEYW)
Time Latitude Longitude Altitude Speed Heading
2026-04-23 20:29 26.67907 -80.08493 21 ft 0 kts 346°
2026-04-23 20:34 26.67915 -80.08495 21 ft 0 kts 346°
2026-04-23 20:38 26.67950 -80.08469 21 ft 12 kts 60°
2026-04-23 20:38 26.68025 -80.08433 22 ft 18 kts 320°
2026-04-23 20:38 26.68112 -80.08558 20 ft 25 kts 269°
2026-04-23 20:39 26.68121 -80.08753 19 ft 23 kts 274°
2026-04-23 20:39 26.68128 -80.08903 19 ft 18 kts 271°
2026-04-23 20:39 26.68135 -80.09075 16 ft 20 kts 273°
2026-04-23 20:39 26.68136 -80.09096 16 ft 1 kts 272°
2026-04-23 20:40 26.68137 -80.09117 16 ft 8 kts 272°
2026-04-23 20:40 26.68139 -80.09231 17 ft 21 kts 275°
2026-04-23 20:40 26.68151 -80.09441 20 ft 32 kts 273°
2026-04-23 20:40 26.68162 -80.09719 21 ft 34 kts 273°
2026-04-23 20:41 26.68173 -80.09962 23 ft 30 kts 273°
2026-04-23 20:41 26.68183 -80.10182 21 ft 28 kts 272°
2026-04-23 20:41 26.68186 -80.10365 20 ft 20 kts 272°
2026-04-23 20:41 26.68198 -80.10482 18 ft 6 kts 290°
2026-04-23 20:42 26.68208 -80.10488 18 ft 0 kts
2026-04-23 20:45 26.68239 -80.10478 18 ft 15 kts 25°
2026-04-23 20:45 26.68301 -80.10316 19 ft 35 kts 94°
2026-04-23 20:45 26.68276 -80.09829 28 ft 94 kts 92°
2026-04-23 20:45 26.68253 -80.08991 266 ft 120 kts 92°
2026-04-23 20:46 26.68257 -80.08031 793 ft 120 kts 88°
2026-04-23 20:46 26.68316 -80.07120 1418 ft 119 kts 86°
2026-04-23 20:46 26.68423 -80.06165 1906 ft 128 kts 84°
2026-04-23 20:46 26.68588 -80.05202 2518 ft 125 kts 74°
2026-04-23 20:47 26.69012 -80.04327 3023 ft 132 kts 60°
2026-04-23 20:47 26.69551 -80.03477 3547 ft 133 kts 56°
2026-04-23 20:47 26.70070 -80.02652 4141 ft 131 kts 59°
2026-04-23 20:47 26.70603 -80.01774 4451 ft 137 kts 57°
2026-04-23 20:48 26.71223 -80.00971 4798 ft 139 kts 50°
2026-04-23 20:48 26.71480 -79.99980 5106 ft 137 kts 98°
2026-04-23 20:48 26.71232 -79.98952 5442 ft 140 kts 123°
2026-04-23 20:48 26.70384 -79.98441 5768 ft 146 kts 173°
2026-04-23 20:49 26.69382 -79.98636 6091 ft 151 kts 207°
2026-04-23 20:49 26.68670 -79.99479 6401 ft 151 kts 246°
2026-04-23 20:49 26.68505 -80.00627 6699 ft 150 kts 266°
2026-04-23 20:49 26.68424 -80.01788 6989 ft 149 kts 264°
2026-04-23 20:50 26.68319 -80.02939 7279 ft 149 kts 263°
2026-04-23 20:50 26.68118 -80.04067 7582 ft 148 kts 252°
2026-04-23 20:50 26.67644 -80.05081 7835 ft 151 kts 232°
2026-04-23 20:50 26.67246 -80.06126 8128 ft 147 kts 268°
2026-04-23 20:51 26.67279 -80.07266 8431 ft 146 kts 272°
2026-04-23 20:51 26.67311 -80.08401 8728 ft 146 kts 271°
2026-04-23 20:51 26.67344 -80.09531 9038 ft 145 kts 272°
2026-04-23 20:51 26.67377 -80.10663 9343 ft 146 kts 272°
2026-04-23 20:52 26.67409 -80.11795 9661 ft 145 kts 272°
2026-04-23 20:52 26.67441 -80.12926 9969 ft 146 kts 272°
2026-04-23 20:52 26.67480 -80.14121 10004 ft 161 kts 272°
2026-04-23 20:52 26.67520 -80.15414 10009 ft 171 kts 272°
2026-04-23 20:53 26.67560 -80.16715 10264 ft 163 kts 272°
2026-04-23 20:53 26.67539 -80.17954 10540 ft 156 kts 261°
2026-04-23 20:53 26.67274 -80.19131 10821 ft 158 kts 257°
2026-04-23 20:53 26.66993 -80.20338 11112 ft 162 kts 257°
2026-04-23 20:54 26.66706 -80.21573 11406 ft 165 kts 257°
2026-04-23 20:54 26.66454 -80.22833 11704 ft 167 kts 260°
2026-04-23 20:54 26.66253 -80.24123 12005 ft 169 kts 263°
2026-04-23 20:54 26.66107 -80.25433 12306 ft 170 kts 265°
2026-04-23 20:55 26.65977 -80.26753 12606 ft 171 kts 265°
2026-04-23 20:55 26.65845 -80.28083 12912 ft 173 kts 265°
2026-04-23 20:55 26.65712 -80.29419 13221 ft 174 kts 265°
2026-04-23 20:55 26.65578 -80.30761 13530 ft 174 kts 265°
2026-04-23 20:56 26.65446 -80.32092 13837 ft 175 kts 265°
2026-04-23 20:56 26.65311 -80.33443 14128 ft 175 kts 265°
2026-04-23 20:56 26.65175 -80.34799 14402 ft 176 kts 265°
2026-04-23 20:56 26.65039 -80.36158 14681 ft 176 kts 265°
2026-04-23 20:57 26.64902 -80.37525 14965 ft 177 kts 265°
2026-04-23 20:57 26.64764 -80.38894 15247 ft 178 kts 265°
2026-04-23 20:57 26.64548 -80.40256 15535 ft 180 kts 251°
2026-04-23 20:57 26.63797 -80.41386 15832 ft 186 kts 224°
2026-04-23 20:58 26.62707 -80.42191 16127 ft 189 kts 214°
2026-04-23 20:58 26.61562 -80.42916 16427 ft 190 kts 214°
2026-04-23 20:58 26.60420 -80.43657 16727 ft 190 kts 215°
2026-04-23 20:58 26.59278 -80.44412 17031 ft 191 kts 216°
2026-04-23 20:59 26.58136 -80.45170 17340 ft 191 kts 216°
2026-04-23 20:59 26.56989 -80.45929 17646 ft 192 kts 216°
2026-04-23 20:59 26.55839 -80.46691 17958 ft 193 kts 216°
2026-04-23 20:59 26.54646 -80.47483 17999 ft 206 kts 215°
2026-04-23 21:00 26.53379 -80.48323 18003 ft 217 kts 215°
2026-04-23 21:00 26.52057 -80.49196 18006 ft 224 kts 215°
2026-04-23 21:00 26.50698 -80.50093 18005 ft 229 kts 215°
2026-04-23 21:00 26.49313 -80.51007 18055 ft 231 kts 215°
2026-04-23 21:01 26.47947 -80.51909 18100 ft 232 kts 215°
2026-04-23 21:01 26.46548 -80.52833 18105 ft 236 kts 215°
2026-04-23 21:01 26.45142 -80.53761 18110 ft 232 kts 215°
2026-04-23 21:01 26.43765 -80.54668 18107 ft 228 kts 215°
2026-04-23 21:02 26.42413 -80.55560 18104 ft 224 kts 215°
2026-04-23 21:02 26.41075 -80.56441 18098 ft 222 kts 215°
2026-04-23 21:02 26.39754 -80.57316 18096 ft 219 kts 215°
2026-04-23 21:02 26.38444 -80.58183 18098 ft 218 kts 215°
2026-04-23 21:03 26.37141 -80.59041 18098 ft 217 kts 215°
2026-04-23 21:03 26.35844 -80.59891 18100 ft 215 kts 215°
2026-04-23 21:03 26.34553 -80.60744 18097 ft 215 kts 216°
2026-04-23 21:03 26.33281 -80.61582 18100 ft 215 kts 215°
2026-04-23 21:04 26.31998 -80.62427 18104 ft 214 kts 215°
2026-04-23 21:04 26.30709 -80.63276 18097 ft 214 kts 215°
2026-04-23 21:04 26.29424 -80.64121 18097 ft 214 kts 215°
2026-04-23 21:04 26.28143 -80.64964 18096 ft 214 kts 215°
2026-04-23 21:05 26.26859 -80.65809 18097 ft 214 kts 215°
2026-04-23 21:05 26.25573 -80.66655 18091 ft 214 kts 215°
2026-04-23 21:05 26.24288 -80.67499 18093 ft 214 kts 215°
2026-04-23 21:05 26.23005 -80.68343 18093 ft 214 kts 215°
2026-04-23 21:06 26.21719 -80.69187 18094 ft 214 kts 215°
2026-04-23 21:06 26.20438 -80.70029 18092 ft 214 kts 215°
2026-04-23 21:06 26.19152 -80.70868 18093 ft 214 kts 214°
2026-04-23 21:06 26.17837 -80.71656 18109 ft 215 kts 211°
2026-04-23 21:07 26.16558 -80.72488 18110 ft 213 kts 218°
2026-04-23 21:07 26.15319 -80.73388 18115 ft 213 kts 217°
2026-04-23 21:07 26.14044 -80.74239 18104 ft 214 kts 215°
2026-04-23 21:07 26.12758 -80.75073 18110 ft 214 kts 215°
2026-04-23 21:08 26.11473 -80.75912 18108 ft 214 kts 215°
2026-04-23 21:08 26.10190 -80.76753 18109 ft 214 kts 215°
2026-04-23 21:08 26.08921 -80.77586 18105 ft 214 kts 215°
2026-04-23 21:08 26.07633 -80.78430 18109 ft 214 kts 215°
2026-04-23 21:09 26.06344 -80.79274 18104 ft 214 kts 215°
2026-04-23 21:09 26.05062 -80.80114 18106 ft 214 kts 215°
2026-04-23 21:09 26.03777 -80.80955 18106 ft 214 kts 215°
2026-04-23 21:09 26.02491 -80.81797 18106 ft 214 kts 215°
2026-04-23 21:10 26.01207 -80.82637 18103 ft 214 kts 215°
2026-04-23 21:10 25.99937 -80.83468 18105 ft 214 kts 215°
2026-04-23 21:10 25.98652 -80.84308 18104 ft 214 kts 215°
2026-04-23 21:10 25.97367 -80.85149 18104 ft 214 kts 215°
2026-04-23 21:11 25.96079 -80.85990 18103 ft 215 kts 215°
2026-04-23 21:11 25.94790 -80.86833 18101 ft 215 kts 215°
2026-04-23 21:11 25.93501 -80.87675 18101 ft 215 kts 215°
2026-04-23 21:11 25.92215 -80.88515 18099 ft 215 kts 215°
2026-04-23 21:12 25.90926 -80.89357 18097 ft 215 kts 215°
2026-04-23 21:12 25.89634 -80.90200 18098 ft 215 kts 214°
2026-04-23 21:12 25.88347 -80.91040 18095 ft 214 kts 215°
2026-04-23 21:12 25.87065 -80.91877 18092 ft 213 kts 214°
2026-04-23 21:13 25.85788 -80.92711 18091 ft 213 kts 214°
2026-04-23 21:13 25.84508 -80.93546 18087 ft 213 kts 214°
2026-04-23 21:13 25.83229 -80.94379 18086 ft 213 kts 214°
2026-04-23 21:13 25.81953 -80.95210 18089 ft 212 kts 214°
2026-04-23 21:14 25.80679 -80.96041 18085 ft 212 kts 214°
2026-04-23 21:14 25.79408 -80.96869 18082 ft 212 kts 214°
2026-04-23 21:14 25.78139 -80.97696 18084 ft 212 kts 214°
2026-04-23 21:14 25.76869 -80.98523 18083 ft 212 kts 214°
2026-04-23 21:15 25.75615 -80.99340 18081 ft 212 kts 214°
2026-04-23 21:15 25.74347 -81.00165 18078 ft 212 kts 214°
2026-04-23 21:15 25.73077 -81.00991 18077 ft 212 kts 214°
2026-04-23 21:15 25.71807 -81.01818 18078 ft 212 kts 214°
2026-04-23 21:16 25.70537 -81.02644 18075 ft 212 kts 214°
2026-04-23 21:16 25.69264 -81.03472 18076 ft 212 kts 214°
2026-04-23 21:16 25.67994 -81.04297 18074 ft 212 kts 214°
2026-04-23 21:16 25.66722 -81.05124 18071 ft 212 kts 214°
2026-04-23 21:17 25.65450 -81.05951 18068 ft 212 kts 214°
2026-04-23 21:17 25.64176 -81.06778 18072 ft 212 kts 214°
2026-04-23 21:17 25.62904 -81.07604 18074 ft 212 kts 214°
2026-04-23 21:17 25.61631 -81.08431 18070 ft 212 kts 214°
2026-04-23 21:18 25.60359 -81.09257 18072 ft 212 kts 214°
2026-04-23 21:18 25.59101 -81.10073 18067 ft 212 kts 214°
2026-04-23 21:18 25.57828 -81.10899 18070 ft 212 kts 214°
2026-04-23 21:18 25.56555 -81.11725 18067 ft 212 kts 214°
2026-04-23 21:19 25.55282 -81.12550 18067 ft 212 kts 214°
2026-04-23 21:19 25.54009 -81.13376 18066 ft 212 kts 214°
2026-04-23 21:19 25.52736 -81.14200 18068 ft 212 kts 214°
2026-04-23 21:19 25.51462 -81.15026 18063 ft 212 kts 214°
2026-04-23 21:20 25.50185 -81.15854 18067 ft 212 kts 214°
2026-04-23 21:20 25.48909 -81.16680 18065 ft 212 kts 214°
2026-04-23 21:20 25.47636 -81.17504 18065 ft 212 kts 214°
2026-04-23 21:20 25.46379 -81.18318 18069 ft 212 kts 214°
2026-04-23 21:21 25.45108 -81.19141 18065 ft 212 kts 214°
2026-04-23 21:21 25.43836 -81.19964 18066 ft 212 kts 214°
2026-04-23 21:21 25.42563 -81.20788 18069 ft 212 kts 214°
2026-04-23 21:21 25.41292 -81.21610 18069 ft 212 kts 214°
2026-04-23 21:22 25.40021 -81.22431 18063 ft 212 kts 214°
2026-04-23 21:22 25.38745 -81.23256 18065 ft 212 kts 214°
2026-04-23 21:22 25.37470 -81.24080 18064 ft 212 kts 214°
2026-04-23 21:22 25.36197 -81.24902 18060 ft 212 kts 214°
2026-04-23 21:23 25.34918 -81.25728 18063 ft 212 kts 214°
2026-04-23 21:23 25.33643 -81.26552 18058 ft 212 kts 214°
2026-04-23 21:23 25.32369 -81.27374 18063 ft 212 kts 214°
2026-04-23 21:23 25.31097 -81.28195 18069 ft 212 kts 214°
2026-04-23 21:24 25.29824 -81.29017 18065 ft 212 kts 214°
2026-04-23 21:24 25.28549 -81.29839 18059 ft 212 kts 214°
2026-04-23 21:24 25.27275 -81.30661 18062 ft 212 kts 214°
2026-04-23 21:24 25.26000 -81.31483 18062 ft 212 kts 214°
2026-04-23 21:25 25.24727 -81.32304 18062 ft 212 kts 214°
2026-04-23 21:25 25.23470 -81.33114 18062 ft 212 kts 214°
2026-04-23 21:25 25.22198 -81.33934 18061 ft 212 kts 214°
2026-04-23 21:25 25.20925 -81.34753 18062 ft 212 kts 214°
2026-04-23 21:26 25.19652 -81.35573 18061 ft 212 kts 214°
2026-04-23 21:26 25.18376 -81.36395 18062 ft 211 kts 214°
2026-04-23 21:26 25.17118 -81.37205 18058 ft 211 kts 214°
2026-04-23 21:26 25.15847 -81.38023 18061 ft 211 kts 214°
2026-04-23 21:27 25.14576 -81.38840 18059 ft 211 kts 214°
2026-04-23 21:27 25.13306 -81.39657 18063 ft 211 kts 214°
2026-04-23 21:27 25.12038 -81.40473 18060 ft 211 kts 214°
2026-04-23 21:27 25.10766 -81.41291 18064 ft 211 kts 214°
2026-04-23 21:28 25.09925 -81.41831 18058 ft 211 kts 214°
2026-04-23 21:28 25.08656 -81.42647 18062 ft 211 kts 214°
2026-04-23 21:28 25.07388 -81.43461 18063 ft 211 kts 214°
2026-04-23 21:28 25.06118 -81.44277 18062 ft 211 kts 214°
2026-04-23 21:29 25.04851 -81.45091 18058 ft 211 kts 214°
2026-04-23 21:29 25.03581 -81.45907 18063 ft 211 kts 214°
2026-04-23 21:29 25.02311 -81.46721 18061 ft 211 kts 214°
2026-04-23 21:29 25.01040 -81.47537 18058 ft 211 kts 214°
2026-04-23 21:30 24.99772 -81.48351 18058 ft 211 kts 214°
2026-04-23 21:30 24.98504 -81.49164 18057 ft 211 kts 214°
2026-04-23 21:30 24.97233 -81.49979 18058 ft 211 kts 214°
2026-04-23 21:30 24.95964 -81.50793 18057 ft 211 kts 214°
2026-04-23 21:31 24.94695 -81.51607 18060 ft 211 kts 214°
2026-04-23 21:31 24.93690 -81.52688 18062 ft 203 kts 242°
2026-04-23 21:31 24.93003 -81.54049 17748 ft 205 kts 241°
2026-04-23 21:31 24.92200 -81.55374 17370 ft 210 kts 236°
2026-04-23 21:32 24.91311 -81.56664 16989 ft 212 kts 235°
2026-04-23 21:32 24.90415 -81.57955 16615 ft 212 kts 235°
2026-04-23 21:32 24.89526 -81.59256 16247 ft 212 kts 236°
2026-04-23 21:32 24.88647 -81.60548 15852 ft 209 kts 235°
2026-04-23 21:33 24.87788 -81.61807 15401 ft 208 kts 236°
2026-04-23 21:33 24.86923 -81.63075 14947 ft 206 kts 235°
2026-04-23 21:33 24.86062 -81.64335 14503 ft 205 kts 235°
2026-04-23 21:33 24.85210 -81.65583 14065 ft 203 kts 235°
2026-04-23 21:34 24.84363 -81.66823 13599 ft 202 kts 235°
2026-04-23 21:34 24.83521 -81.68055 13111 ft 201 kts 235°
2026-04-23 21:34 24.82684 -81.69279 12633 ft 200 kts 235°
2026-04-23 21:34 24.81850 -81.70499 12155 ft 199 kts 234°
2026-04-23 21:35 24.81017 -81.71718 11694 ft 199 kts 234°
2026-04-23 21:35 24.80185 -81.72936 11227 ft 199 kts 234°
2026-04-23 21:35 24.79354 -81.74148 10775 ft 198 kts 234°
2026-04-23 21:35 24.78532 -81.75348 10330 ft 199 kts 234°
2026-04-23 21:36 24.76871 -81.77775 9398 ft 198 kts 233°
2026-04-23 21:36 24.76042 -81.78985 8917 ft 198 kts 233°
2026-04-23 21:36 24.75217 -81.80190 8445 ft 197 kts 233°
2026-04-23 21:37 24.74396 -81.81388 7978 ft 195 kts 233°
2026-04-23 21:37 24.73581 -81.82577 7518 ft 194 kts 232°
2026-04-23 21:37 24.72771 -81.83760 7064 ft 193 kts 232°
2026-04-23 21:37 24.71965 -81.84934 6617 ft 192 kts 232°
2026-04-23 21:38 24.71164 -81.86102 6155 ft 191 kts 232°
2026-04-23 21:38 24.70366 -81.87266 5683 ft 191 kts 232°
2026-04-23 21:38 24.69563 -81.88436 5217 ft 192 kts 231°
2026-04-23 21:38 24.68760 -81.89606 4754 ft 192 kts 230°
2026-04-23 21:39 24.67959 -81.90773 4282 ft 191 kts 230°
2026-04-23 21:39 24.67161 -81.91935 3989 ft 183 kts 231°
2026-04-23 21:39 24.66414 -81.93024 3990 ft 176 kts 230°
2026-04-23 21:39 24.65681 -81.94090 3988 ft 174 kts 231°
2026-04-23 21:40 24.64957 -81.95143 3990 ft 172 kts 229°
2026-04-23 21:40 24.64242 -81.96170 3990 ft 171 kts 229°
2026-04-23 21:40 24.63479 -81.97157 3991 ft 166 kts 211°
2026-04-23 21:40 24.62424 -81.97417 3994 ft 154 kts 163°
2026-04-23 21:41 24.61427 -81.97018 3999 ft 154 kts 160°
2026-04-23 21:41 24.60360 -81.96864 4005 ft 156 kts 173°
2026-04-23 21:41 24.59271 -81.96841 4003 ft 156 kts 175°
2026-04-23 21:41 24.58191 -81.96822 4009 ft 155 kts 174°
2026-04-23 21:42 24.57109 -81.96797 4008 ft 154 kts 171°
2026-04-23 21:42 24.56135 -81.96382 4006 ft 151 kts 139°
2026-04-23 21:42 24.55528 -81.95470 4009 ft 150 kts 110°
2026-04-23 21:42 24.55400 -81.94331 4008 ft 152 kts 91°
2026-04-23 21:43 24.55426 -81.93171 4004 ft 151 kts 91°
2026-04-23 21:43 24.55442 -81.91990 3702 ft 153 kts 91°
2026-04-23 21:43 24.55457 -81.90844 3382 ft 146 kts 90°
2026-04-23 21:43 24.55471 -81.89743 3036 ft 143 kts 92°
2026-04-23 21:44 24.55483 -81.88649 2673 ft 143 kts 91°
2026-04-23 21:44 24.55495 -81.87550 2297 ft 144 kts 92°
2026-04-23 21:44 24.55506 -81.86448 1927 ft 143 kts 92°
2026-04-23 21:44 24.55518 -81.85377 1571 ft 142 kts 92°
2026-04-23 21:45 24.55530 -81.84350 1487 ft 125 kts 91°
2026-04-23 21:45 24.55541 -81.83460 1490 ft 112 kts 92°
2026-04-23 21:45 24.55549 -81.82616 1443 ft 111 kts 91°
2026-04-23 21:45 24.55559 -81.81754 1227 ft 113 kts 91°
2026-04-23 21:46 24.55576 -81.80884 971 ft 113 kts 89°
2026-04-23 21:46 24.55586 -81.80082 839 ft 100 kts 90°
2026-04-23 21:46 24.55611 -81.79336 630 ft 96 kts 92°
2026-04-23 21:46 24.55616 -81.78612 459 ft 93 kts 90°
2026-04-23 21:47 24.55616 -81.77909 305 ft 91 kts 92°
2026-04-23 21:47 24.55610 -81.77204 138 ft 92 kts 93°
2026-04-23 21:47 24.55610 -81.76526 10 ft 78 kts 87°
2026-04-23 21:47 24.55613 -81.76099 5 ft 32 kts 90°
2026-04-23 21:48 24.55613 -81.75884 7 ft 28 kts 89°
2026-04-23 21:48 24.55614 -81.75664 10 ft 22 kts 89°
2026-04-23 21:48 24.55550 -81.75588 10 ft 19 kts 174°
2026-04-23 21:48 24.55474 -81.75626 10 ft 0 kts 265°